星链-2550 (STARLINK-2550 )

导读 | 豆包AI

STARLINK-2550是美国太空探索技术公司Starlink星座中的一颗卫星,于2021年4月29日发射入轨,属于SpaceX星链互联网项目的组网卫星。星链项目旨在构建全球卫星互联网,该卫星承担为全球偏远地区等提供低时延、高速宽带互联网接入的任务,助力全球网络覆盖的完善,推动卫星互联网络建设。

Basic Information
目录编号:
48293
目录名称:
STARLINK-2550
国际标识:
2021-036T
轨道中心:
EARTH
卫星名称:
星链-2550
卫星全名:
星链-2550 (STARLINK-2550 )
卫星状态:
在轨 (已飞行1827 天)
发射日期:
2021-04-29 UTC
国别 :
美国 (US)
星等 :
--
Orbit Information
数据来源 国际轨道数据 AOE轨道数据
星历时间 2026-04-30T12:13:35+0800
10小时前
查看轨道信息
2026-04-28T08:00:00+0800
2天前
查看轨道信息
半长轴 6848.858km 6848.921km
偏心率 0.0001488 0.000153
轨道倾角 53.161° 53.160°
近地点辐角 83.616° 49.737°
升交点赤经 196.059° 206.191°
平近点角 276.501° 184.397°
近地点 469.701km 469.736km
远地点 471.741km 471.832km
周期 94.013分钟 94.014分钟
每日圈数 15.317065 15.316853
Detailed Information
固有亮度:
5
最大亮度:
2.5
卫星平台:
Starlink V1.0
覆盖范围:
全球
运营商:
太空探索技术公司
运营商所在国:
美国
制造商(研发单位):
太空探索技术公司
制造商所在国:
美国
使用方式:
暂无
Satellite Introduction
星链(Starlink)计划是由太空探索技术公司(SpaceX)提出的一个巨型低轨卫星互联网星座项目,计划在2019年至2024年间在太空搭建由约1.2万颗卫星组成的“星链”网络,其中1584颗将部署在地球上空550千米处的近地轨道,并从2020年开始工作。该卫星仍在工作。
2D Orbit Map
3D Orbit Map
Orbit Altitude Analysis Chart
Orbit Inclination Analysis Chart
Orbit Comprehensive Analysis Chart
View Comprehensive Chart